Dewpoint
55 53 52 52 52 52 52 52 52 52 52 52 52 52 52 52 53 51 48 49 50 45 43 42 38 41 38 37 34 38 36 37 36 37 37 35 38 47 47 47 45 42 41 42 43 41 37 50 45 42 45 48 50 52
55 55 54 53 53 53 53 53 53 53 52 52 52 52 52 51 52 53 47 48 48 47 44 45 44 44 43 41 36 36 36 35 40 39 40 42 44 50 46 43 48 42 46 47 46 45 49 53 50 53 52 55 57 56
56 55 55 55 54 53 53 53 53 52 52 52 52 52 52 53 52 52 48 48 48 46 42 41 39 38 40 41 40 36 35 35 36 36 40 41 46 51 46 46 46 51 52 49 49 50 52 52 55 55 56 57 59 59
56 56 56 55 55 54 54 53 53 53 52 51 52 51 52 53 53 52 48 48 48 46 41 35 36 39 38 35 38 36 33 29 25 35 35 38 38 51 46 50 50 51 53 50 49 50 52 52 56 55 56 57 58 60
55 56 56 55 55 55 54 54 54 53 52 51 51 52 53 52 52 50 49 49 49 46 41 41 42 40 34 32 35 35 29 27 33 38 36 33 39 39 38 42 48 53 50 48 49 54 53 53 56 56 57 58 58 58
55 55 55 55 55 55 55 54 54 53 53 51 52 52 53 52 52 48 47 50 50 51 44 39 39 39 40 38 36 41 37 38 39 41 39 37 33 34 38 37 43 55 57 56 54 55 55 55 56 59 57 58 59 60
55 55 55 54 55 55 55 54 54 53 52 52 52 53 53 53 50 47 47 50 51 53 44 41 39 39 43 46 44 41 41 46 45 43 41 38 36 40 37 35 43 55 57 56 57 57 57 56 55 58 57 57 59 59
55 55 54 55 55 55 55 54 54 53 52 52 52 52 53 52 51 49 50 50 51 48 46 41 40 40 43 46 45 50 48 49 45 43 42 41 41 41 40 41 44 55 56 57 57 57 53 56 59 59 59 57 56 55
55 54 54 54 55 55 54 54 53 52 52 52 51 52 51 50 50 50 52 52 52 49 44 44 40 39 44 49 52 54 53 50 48 43 42 44 42 43 46 43 44 47 51 51 52 53 54 56 58 57 54 55 51 53
55 55 54 55 55 55 54 54 53 51 51 50 49 49 50 52 54 53 49 47 47 46 46 43 44 41 45 52 51 50 52 49 48 45 45 42 40 47 54 55 57 57 54 52 53 53 54 56 56 56 57 56 57 57
54 54 54 54 55 54 54 54 52 51 51 50 49 47 51 54 50 48 47 46 46 45 46 46 47 46 49 48 48 50 48 48 45 46 45 43 41 54 55 53 56 57 56 55 55 53 53 53 54 53 54 56 57 60
54 54 54 54 54 54 54 53 51 47 49 48 48 49 49 48 47 46 46 48 46 44 47 47 48 52 51 54 50 51 47 48 44 50 48 44 52 56 55 54 55 56 57 57 55 56 56 56 56 56 56 57 56 59
53 54 54 54 54 54 54 52 51 50 50 51 49 48 46 46 39 40 40 46 48 51 52 53 51 54 54 54 51 49 45 43 49 46 44 50 56 56 56 55 54 53 57 58 55 55 57 58 59 59 57 60 59 58
53 54 54 54 54 54 54 52 50 50 49 48 46 40 46 43 42 42 44 45 48 52 50 53 52 52 54 50 46 44 45 45 41 39 44 53 55 56 57 57 56 55 54 54 55 56 57 57 58 60 61 60 56 56
53 53 54 53 53 54 54 50 50 50 49 47 45 40 43 44 46 45 47 48 50 50 50 52 52 54 51 49 50 46 43 41 43 45 50 53 55 56 56 56 55 54 54 55 56 56 58 58 58 61 62 62 58 56
53 53 53 53 52 52 49 48 50 51 50 47 45 43 45 43 43 45 46 47 53 51 50 51 50 48 46 49 45 43 41 42 46 51 53 54 54 55 55 57 57 57 56 56 56 57 58 58 59 60 62 62 62 60
53 53 52 51 49 48 49 48 51 48 48 47 45 44 44 45 46 48 52 55 54 53 48 49 44 44 49 46 43 48 46 48 51 52 54 53 54 55 56 57 57 56 56 56 56 57 58 59 60 61 60 61 62 62
53 51 50 49 48 50 48 48 49 48 46 46 45 45 47 51 49 52 55 54 51 50 50 48 49 43 42 41 44 46 47 47 48 51 52 55 55 56 56 55 57 57 56 56 56 58 59 60 61 62 61 61 62 62
53 49 52 52 47 45 48 51 51 45 45 47 48 49 49 49 56 57 53 55 55 54 50 46 44 43 46 47 44 44 46 47 47 49 51 53 55 55 56 56 56 56 56 57 58 60 60 60 59 59 61 60 59 60
53 53 53 53 49 46 46 50 55 50 45 47 46 49 50 50 53 54 50 50 51 49 47 46 46 46 46 48 49 49 50 50 50 49 50 51 52 53 55 55 55 55 54 55 59 54 59 57 58 59 59 58 57 56
53 51 51 49 47 49 48 49 52 51 49 47 47 49 47 51 53 51 51 51 48 46 45 49 49 50 52 52 53 53 53 54 53 54 53 53 53 53 54 55 57 56 57 58 58 58 57 54 56 57 57 56 56 57
50 51 50 51 50 50 48 50 47 49 48 47 47 46 48 50 51 51 54 52 47 46 47 51 51 51 51 51 52 53 53 53 53 53 51 52 53 53 53 54 54 55 55 56 59 57 57 57 56 56 56 56 55 57
49 49 48 49 49 45 45 49 46 46 44 47 48 47 48 49 50 52 50 53 49 47 50 52 53 53 52 53 53 53 53 52 52 52 52 52 53 53 53 52 52 53 54 55 58 58 57 53 55 58 57 58 58 57
50 49 48 46 47 43 45 47 47 45 47 47 45 41 44 50 50 51 48 50 53 49 49 53 54 54 54 54 53 53 54 55 53 53 54 52 51 52 52 52 54 55 56 57 57 56 56 57 55 57 57 57 57 57
44 43 44 39 46 45 41 41 45 46 43 45 43 44 48 50 48 48 48 50 54 49 49 53 52 51 50 49 52 55 54 56 54 53 54 55 53 53 53 53 53 53 56 54 54 55 57 57 57 57 57 57 56 56
40 44 41 40 39 37 39 39 43 44 42 43 43 43 46 45 44 45 49 50 54 52 52 52 53 51 52 50 49 49 51 54 53 52 53 54 53 51 52 52 52 54 57 57 54 53 54 54 54 55 53 52 48 53
41 43 45 46 42 43 43 45 43 41 41 39 41 41 41 40 43 49 51 54 54 53 52 57 52 51 50 51 52 54 52 53 52 50 53 52 46 44 43 41 40 43 47 53 53 53 52 52 52 52 51 48 49 52
43 44 42 44 43 42 42 47 48 43 40 43 41 42 39 41 46 50 50 53 52 52 52 52 50 52 51 48 55 54 51 50 48 47 48 46 45 43 43 42 42 39 40 41 40 40 39 43 42 41 42 43 44 45
44 44 44 44 44 44 43 41 42 42 46 48 47 43 44 51 51 51 56 57 52 51 49 48 52 55 53 52 52 51 50 47 47 48 45 40 40 39 41 41 43 40 39 40 38 39 41 39 42 42 43 43 44 46
43 44 43 44 43 43 43 42 43 45 49 52 53 52 51 53 53 55 55 52 53 50 47 50 47 51 47 47 46 47 45 44 44 42 40 39 37 37 38 38 39 39 38 36 34 34 37 38 39 38 37 38 38 37
43 44 43 43 42 42 42 42 44 52 53 50 47 48 48 50 52 52 51 52 53 55 48 50 47 46 44 47 46 46 45 46 47 45 40 38 38 39 39 40 38 38 37 36 35 34 33 34 35 37 37 36 36 35
42 43 43 42 42 43 42 47 46 48 50 48 46 48 48 53 50 53 55 55 53 51 50 52 46 49 47 43 44 43 40 42 43 43 45 44 45 45 43 37 36 36 36 35 35 35 36 35 33 33 33 36 35 34
42 43 42 40 44 46 50 49 51 49 47 48 50 50 48 48 48 49 53 51 49 47 51 49 46 49 47 46 43 42 41 42 41 38 38 38 38 40 40 41 41 38 37 35 35 35 37 38 37 37 37 36 35 35
Lifted_Index
7 7 8 8 8 9 9 9 10 10 10 10 10 9 8 8 8 8 7 6 6 6 6 6 6 6 6 6 5 5 5 4 3 2 2 1 1 0 -0 0 -0 -0 -0 0 1 1 1 0 0 0 0 -0 -1 -1
7 7 8 8 8 8 8 8 9 9 10 10 10 9 8 9 10 10 9 8 7 7 6 6 6 6 5 5 5 5 5 4 3 2 2 2 1 0 0 -0 -0 -1 -0 -0 0 0 0 0 0 0 0 -0 -1 -1
8 8 7 7 8 8 7 8 8 9 10 10 9 9 9 11 11 11 11 10 9 7 7 6 5 5 5 5 5 5 5 5 4 4 3 2 1 -0 -0 -0 -0 -1 -0 -0 -0 0 0 0 -0 0 0 -0 -1 -1
8 7 7 7 7 8 7 7 8 9 10 10 10 10 11 12 12 12 11 10 9 8 7 6 5 5 5 4 4 5 5 5 5 5 4 3 2 1 0 0 -0 -0 -0 -0 -0 0 0 0 0 0 0 -0 -1 -1
7 7 7 7 7 7 7 7 8 9 10 10 11 12 12 12 12 12 10 9 9 8 7 6 6 5 4 4 3 3 4 5 5 5 4 4 3 2 2 1 0 -0 -0 -0 0 -0 -0 0 1 1 0 -0 -0 -0
7 7 7 6 6 7 7 7 7 9 10 11 12 12 12 11 11 10 8 8 8 8 7 6 5 4 3 3 2 2 3 3 3 3 4 4 4 3 3 3 1 -1 -1 0 0 -0 -0 -0 0 0 0 -0 -0 -1
6 6 7 6 6 6 7 7 7 9 10 11 12 11 10 9 9 8 7 7 7 8 7 6 4 3 3 2 2 2 2 1 1 2 2 3 3 3 3 3 1 -1 -1 -0 0 -0 -1 -0 -0 -1 -0 -0 -1 -1
5 5 6 6 6 6 7 7 7 9 11 11 11 10 9 8 7 7 6 7 7 7 6 5 4 3 2 2 1 1 1 0 0 1 1 2 2 2 2 2 1 -0 -1 -1 -0 -0 -1 -1 -1 -1 -1 -1 -2 -2
4 5 5 6 6 6 6 6 7 9 10 9 9 8 7 6 6 6 6 6 6 5 4 4 3 3 2 1 0 0 0 -0 -0 -0 1 1 2 1 1 1 0 -1 -1 -1 -1 -1 -1 -1 -1 -2 -2 -2 -3 -3
4 4 5 6 6 6 6 6 8 9 9 7 7 6 5 5 6 6 5 5 4 4 3 2 2 1 1 0 -0 -0 -0 -0 -1 -1 -1 0 0 0 -1 -1 -2 -2 -2 -2 -1 -1 -1 -1 -1 -2 -2 -2 -3 -3
4 4 5 5 6 6 6 7 9 9 8 6 6 6 5 5 5 4 3 3 2 2 2 2 1 0 -0 -0 -0 -0 -0 -0 -1 -1 -1 -1 -1 -1 -1 -2 -3 -3 -3 -2 -2 -1 -1 -1 -1 -2 -2 -2 -2 -2
4 4 5 5 6 6 6 7 9 9 8 7 7 6 5 5 4 3 2 1 1 1 1 1 -0 -0 -1 -0 -0 -0 -0 -0 -1 -1 -2 -2 -2 -2 -2 -1 -1 -2 -2 -2 -2 -2 -2 -2 -2 -2 -2 -1 -1 -1
4 4 5 5 6 6 6 8 9 9 8 7 6 5 4 3 2 1 0 -0 -0 -1 -1 -1 -1 -1 -1 -0 -0 -0 -0 -1 -1 -1 -2 -2 -3 -3 -2 -2 -1 -0 -0 -1 -1 -2 -2 -2 -3 -3 -2 -1 -1 -1
4 4 5 6 6 6 7 8 9 9 7 5 4 3 2 1 1 0 -0 -1 -1 -1 -1 -1 -1 -1 -1 -0 -0 -0 -0 -1 -1 -1 -2 -2 -3 -3 -3 -2 -1 -1 -0 -0 -1 -2 -2 -2 -2 -3 -3 -2 -1 -1
4 5 5 6 6 7 8 9 9 8 6 4 3 2 1 1 0 -0 -0 -1 -1 -1 -1 -1 -1 -1 -1 -0 -0 -0 -0 -1 -1 -1 -1 -2 -2 -2 -2 -2 -1 -1 -1 -1 -1 -1 -2 -2 -2 -2 -3 -2 -2 -2
4 5 5 6 6 7 8 9 8 6 5 3 2 1 1 0 -0 -0 -1 -1 -2 -1 -1 -1 -0 -0 -0 -1 -1 -1 -1 -1 -1 -1 -1 -1 -1 -1 -2 -2 -1 -1 -1 -1 -1 -1 -1 -2 -2 -2 -3 -3 -2 -2
4 4 5 5 6 6 7 7 7 5 3 2 1 1 0 -0 -0 -1 -1 -2 -2 -1 -1 -0 0 0 0 -0 -1 -1 -1 -0 -0 -0 -0 -0 -0 -1 -1 -1 -1 -1 -0 -0 -0 -1 -1 -1 -2 -2 -3 -3 -2 -1
4 4 5 5 5 6 6 6 5 4 2 1 0 -0 -0 -1 -1 -1 -1 -2 -1 -1 -0 0 1 1 1 1 1 0 1 1 1 0 0 -0 -1 -1 -1 -1 -1 -0 -0 0 -0 -1 -1 -1 -1 -2 -2 -2 -2 -1
4 4 5 5 6 6 5 4 3 2 1 1 -0 -1 -1 -1 -1 -1 -1 -1 -1 -0 0 1 1 2 2 2 2 2 2 2 1 1 0 -0 -0 -1 -1 -0 -0 -0 -0 -0 -1 -1 -1 -1 -1 -2 -2 -2 -1 -1
4 5 5 5 6 6 5 3 2 1 1 0 -0 -1 -1 -1 -1 -1 -1 -1 -0 0 1 2 2 2 3 2 2 2 2 2 1 1 1 0 0 0 0 -0 -0 -0 -0 -1 -1 -1 -1 -1 -1 -1 -2 -1 -1 -1
5 5 5 6 6 6 4 3 1 1 0 -0 -1 -1 -1 -1 -1 -1 -1 -0 0 1 2 2 3 3 3 3 2 2 1 1 1 1 0 0 1 1 1 1 0 0 -0 -1 -1 -1 -1 -0 -0 -0 -1 -0 0 1
5 6 6 5 5 5 4 3 2 1 0 -0 -1 -1 -2 -1 -1 -1 -1 -0 0 2 2 2 3 3 3 3 3 2 2 2 1 1 1 1 1 2 2 1 1 1 0 -0 -1 -1 -0 0 1 1 1 2 2 2
5 5 5 4 4 4 3 2 2 1 0 -0 -1 -1 -1 -2 -1 -1 -1 -0 0 1 2 2 2 3 3 3 3 3 2 2 2 2 2 2 3 3 3 3 2 2 1 1 -0 -0 0 1 1 1 2 2 2 2
5 5 4 3 3 3 2 2 1 0 -0 -0 -0 -1 -1 -2 -2 -1 -0 0 0 1 1 1 1 2 2 3 2 3 3 2 3 3 3 3 3 4 4 3 3 3 2 1 1 0 1 1 1 2 2 2 2 2
4 4 3 3 3 2 2 1 1 -0 -0 -1 -1 -1 -1 -1 -2 -1 -0 -0 -0 -0 -0 -0 -0 1 1 2 2 2 2 2 2 2 2 3 3 3 4 4 3 3 3 2 2 1 1 2 2 2 2 2 2 2
3 3 3 3 2 2 1 1 0 -0 -1 -1 -1 -1 -1 -1 -1 -1 -1 -1 -1 -1 -1 -1 -1 -0 0 1 1 1 1 1 1 1 1 2 3 3 4 4 4 4 3 3 3 2 2 2 2 2 2 2 2 2
2 2 2 2 2 1 1 1 0 -0 -1 -1 -1 -1 -1 -1 -1 -1 -1 -1 -1 -2 -2 -1 -1 -0 0 0 1 1 1 1 1 1 1 2 3 4 4 5 5 4 4 3 3 2 2 2 2 2 2 2 2 2
2 2 2 2 1 1 1 1 0 -0 -1 -1 -1 -1 -1 -2 -2 -2 -1 -1 -1 -2 -2 -1 -1 -0 -0 -0 0 0 1 1 1 1 1 2 3 3 4 5 5 5 4 3 3 3 2 2 2 3 3 3 3 2
3 2 2 1 1 1 1 1 -0 -1 -1 -1 -1 -1 -2 -2 -2 -2 -1 -1 -1 -1 -1 -1 -1 -1 -1 -1 -0 0 0 0 1 1 1 2 3 3 4 4 5 5 5 4 4 4 4 4 3 3 3 3 3 3
3 2 2 1 1 1 1 0 -0 -1 -1 -1 -1 -2 -2 -2 -2 -2 -1 -1 -1 -1 -1 -1 -1 -1 -1 -1 -1 -0 -0 0 1 1 1 2 3 3 4 4 5 5 5 5 5 5 5 5 5 5 5 5 5 5
2 2 1 1 1 1 0 -0 -1 -1 -1 -1 -2 -2 -2 -2 -2 -2 -1 -2 -2 -1 -1 -1 -1 -1 -0 -0 -0 -0 -0 0 1 1 1 2 2 3 4 4 5 5 5 6 6 6 6 6 6 6 6 6 6 7
2 1 1 1 0 1 0 -0 -1 -1 -1 -1 -1 -2 -2 -2 -2 -2 -2 -2 -2 -1 -1 -1 -1 -0 -0 0 0 0 1 1 1 1 1 2 2 2 3 3 4 4 5 5 6 6 6 6 7 7 7 7 7 8
1 1 1 1 0 0 0 -0 -1 -1 -1 -1 -1 -1 -1 -2 -2 -2 -2 -2 -2 -1 -2 -1 -1 -0 0 0 1 1 1 1 1 1 2 2 2 2 2 3 3 4 5 5 5 6 6 6 6 7 7 7 8 8